#timestamp,LO_Frequency,Hit,StdDev 
1558540815.7,286047003.4,N
1558540835.5,286047005.6,Y
1558540855.4,286047004.4,P
1558540875.2,286047001.7,N
1558540895.0,286047002.3,N
1558540895.9,286047002.3,N
1558540915.8,286047002.5,N
1558540935.6,286047001.5,N
1558540955.4,286047001.9,N
1558540975.3,286047000.1,N
1558540995.1,286046999.8,N
1558541015.9,286047002.8,N
1558541035.7,286047001.8,N
1558541055.5,286047001.5,N
1558541075.4,286047001.3,N
1558541095.2,286047004.0,Y
1558541115.0,286047002.3,P
1558541116.0,286047002.3,P
1558541135.8,286047002.8,P
1558541155.6,286046999.8,N
1558541175.5,286047002.7,N
1558541195.3,286046999.8,N
1558541215.1,286047000.2,N
1558541235.9,286046998.5,N
1558541255.7,286046993.6,Y
1558541275.6,286046989.0,P
1558541295.4,286046985.5,N
1558541315.2,286046982.7,N
1558541335.1,286046983.5,N
1558541336.0,286046983.5,N
1558541355.8,286046979.8,Y
1558541375.6,286046989.1,P
1558541395.5,286046990.0,P
1558541415.3,286046990.0,P
1558541435.2,286046985.7,Y
1558541455.9,286046995.3,P
1558541475.7,286046996.0,N
1558541495.6,286046991.9,N
1558541515.4,286046992.0,N
1558541535.2,286046993.2,N
1558541555.1,286046988.9,Y
1558541556.0,286046988.9,P
1558541575.8,286046996.4,N
1558541595.7,286046994.6,N
1558541615.5,286046995.4,N
1558541635.3,286046996.8,N
1558541655.2,286047001.1,N
1558541675.0,286047002.8,N
1558541675.9,286047002.8,N
1558541695.8,286047004.4,N
1558541715.6,286047005.6,N
1558541735.4,286047007.6,N
1558541755.3,286047008.5,N
1558541775.1,286047010.3,N
1558541795.8,286047011.6,N
1558541815.7,286047013.0,N
1558541835.5,286047015.1,N
1558541855.4,286047016.9,N
1558541875.2,286047017.1,N
1558541895.0,286047015.7,N
1558541895.9,286047015.7,N
1558541915.8,286047018.0,N
1558541935.6,286047018.5,N
1558541955.4,286047020.4,N
1558541975.3,286047017.7,N
1558541995.1,286047017.3,N
1558542015.9,286047018.0,N
1558542035.7,286047017.3,N
1558542055.5,286047017.3,N
1558542105.4,286047021.4,E
1558542115.3,286047011.8,N
1558542135.1,286047000.9,P
1558542155.9,286047000.8,N
1558542175.7,286046999.9,N
1558542195.5,286047002.0,N
1558542215.4,286047001.6,N
1558542235.2,286047001.4,N
1558542255.1,286046999.7,N
1558542256.0,286046999.7,N
1558542275.8,286047000.4,N
1558542295.6,286047000.0,N
1558542315.5,286047002.5,N
1558542335.3,286047002.6,N
1558542355.1,286047000.1,N
1558542375.9,286046999.7,N
1558542395.7,286047002.3,N
1558542415.6,286047000.4,N
1558542435.4,286047002.5,N
1558542455.2,286047002.6,N
1558542475.1,286047002.2,N
1558542476.0,286047002.2,N
1558542495.8,286047004.3,N
1558542515.6,286047001.6,N
1558542535.5,286047002.6,N
1558542555.3,286047001.3,N
1558542575.2,286046999.7,N
1558542595.9,286047001.5,N
1558542615.7,286047003.2,N
1558542635.6,286047002.1,N
1558542655.4,286047001.6,N
1558542675.2,286047002.2,N
1558542695.1,286047002.2,N
1558542696.0,286047002.2,N
1558542715.8,286047001.3,N
1558542735.7,286047002.6,N
1558542755.5,286047002.0,N
1558542775.3,286047001.5,N
1558542795.2,286047001.3,N
1558542815.0,286047004.3,Y
1558542815.9,286047004.3,P
1558542835.8,286047002.5,N
1558542855.6,286047001.7,N
1558542875.4,286047001.9,N
1558542895.3,286047001.9,N
1558542915.1,286047003.6,Y
1558542935.8,286047002.4,P
1558542955.7,286047000.8,P
1558542975.5,286047002.0,N
1558542995.4,286047002.3,Y
1558543015.2,286046996.5,P
1558543035.0,286046997.1,N
1558543035.9,286046997.1,N
1558543055.8,286046994.9,N
1558543075.6,286046996.6,N
1558543095.4,286046997.0,N
1558543115.3,286046999.3,N
1558543135.1,286046998.4,N
1558543155.9,286046997.1,N
1558543175.7,286046999.0,N
1558543195.5,286046999.3,N
1558543215.4,286046999.3,N
1558543235.2,286046999.3,N
1558543255.1,286046996.5,N
1558543256.0,286046996.5,N
1558543275.8,286046998.9,N
1558543295.6,286046996.7,N
1558543315.5,286046997.1,N
1558543335.3,286046999.6,N
1558543355.1,286046996.9,N
1558543375.9,286046996.5,N
1558543395.7,286046999.5,N
1558543415.6,286046996.5,N
1558543435.4,286046998.7,N
1558543455.2,286046998.6,N
1558543475.1,286046998.7,N
1558543476.0,286046998.7,N
1558543495.8,286046999.3,N
1558543515.6,286047000.9,N
1558543535.5,286047000.3,N
1558543555.3,286047000.3,N
1558543575.2,286047002.7,N
1558543595.9,286047002.7,N
1558543615.7,286047000.2,N
1558543635.6,286046999.7,N
1558543655.4,286047001.0,N
1558543675.2,286046998.7,N
1558543695.1,286046999.0,N
1558543696.0,286046999.0,N
1558543715.8,286046998.7,N
1558543735.7,286046998.3,N
1558543755.5,286047001.1,N
1558543775.3,286046999.6,N
1558543795.2,286046998.7,N
1558543815.0,286046998.3,N
1558543815.9,286046998.3,N
1558543835.7,286046998.5,N
1558543855.6,286047000.6,N
1558543875.4,286047000.9,N
1558543895.3,286046999.8,N
1558543915.1,286047000.9,N
1558543916.0,286047000.9,N
1558543935.8,286046999.7,N
1558543955.7,286047002.2,N
1558543975.5,286046999.9,N
1558543995.4,286047002.2,N
1558544015.2,286047001.5,N
1558544035.0,286047005.2,Y
1558544035.9,286047005.2,P
1558544055.8,286047007.5,N
1558544075.6,286047005.7,N
1558544095.4,286047004.9,N
1558544115.3,286047008.9,Y
1558544135.1,286047001.6,P
1558544155.9,286047002.6,N
1558544175.7,286047002.6,N
1558544195.5,286047002.8,N
1558544215.4,286047002.5,N
1558544235.2,286047001.2,N
1558544255.0,286046998.2,N
1558544256.0,286046998.2,N
1558544275.8,286046999.1,N
1558544295.6,286046996.6,N
1558544315.5,286046997.0,N
1558544335.3,286046996.5,N
1558544355.1,286046999.2,N
1558544375.9,286046999.1,N
1558544395.7,286046999.3,N
